Weather in Atka

Russia / Magadan District     60°50′06″N   151°47′20″E
temp.,
°C
wind,
m/s
gust,
m/s
humid.,
%
clouds,
%
prec.,
mm/h
press.,
hPa
HPBL,
m
21 april, wed
wed2123:00−11e229899 0.1 102110
02:00−10ese2210092 0.0 102122
05:00−10ese229881 0.1 102212
08:00−6ese229574 0.2 1021125
11:00−2se488698 0.5 1020705
14:00−2se489196 0.7 1020799
17:00−2se388892 1.3 1020757
20:00−5se239785 0.4 102261
22 april, thu
thu2223:00−8se239889 0.9 102442
02:00−10se229884 0.3 102516
05:00−12se229786 0.6 102611
08:00−7se229590 0.3 1024128
11:00−4sse3489100 0.4 1022544
14:00−3s5684100 0.3 1022857
17:00−3s458297 0.4 1021700
20:00−8s339635 0.0 102329
23 april, fri
fri2323:00−10s339999 0.1 102437
02:00−7s3594100 0.1 1022122
05:00−9s3397100 0.1 102151
08:00−6sse3595100 1.1 1018362
11:00−5s4684100 1.8 1015685
14:00−3sse3583100 0.1 1012755
17:00−4ese3694100 0.7 1008654
20:00−6ese2396100 1.3 1007254
24 april, sat
sat2423:00−7ese2297100 3.4 100654
02:00−8se1196100 0.9 100523
05:00−11ese2197100 1.4 100511
08:00−9ese1193100 0.1 1005125
11:00−6se2282100 0.4 1004622
14:00−5s3381100 1.0 1005707
17:00−6nne2185100 2.0 1006373
20:00−11n449194 0.2 101047
25 april, sun
sun2523:00−20n3310050 0.3 101617
02:00−21n439951 0.0 101630
05:00−21n459851 0.0 101746
08:00−16n6791100 0.0 1014346
11:00−13n6881100 0.0 1012601
14:00−11n7878100 0.0 1010769
17:00−12nne5785100 0.3 1009686
20:00−13n4695100 0.4 1009451